Starlink 30943

operational
NORAD ID: 58449 Int'l Des: 2023-183 Owner: SPXS Country: US Constellation: starlink
LEOCIRCULAR

Über Starlink 30943

Beschreibung wird geladen...

Live-Position

3D-Globus wird geladen...

Nächste Überflüge

Höhenverlauf

Altitude vs Time

uPlot chart will show altitude changes over time

Zweizeiliger Elementsatz

1 58449U 23183N 26034.47818129 .00000741 00000-0 69914-4 0 9997
2 58449 43.0022 203.5472 0001309 259.6269 100.4426 15.02549641121860
Epoch: 3. Feb. 2026 • Age: 30 hours

Aktueller Status

Höhe 571.0 km
Geschwindigkeit 7.58 km/s
Subsatellitenpunkt -41.81°S, 87.62°E
Startdatum 28. Nov. 2023
Alter 2.1 years
Typ internet

Technische Details

Klassifizierung Payload
Masse 730.00 kg
Trockenmasse 700.00 kg
Gesamtmasse 730.00 kg
Länge 0.30 m
Durchmesser 4.10 m
Spannweite 29.00 m
Form Box + pan
Hersteller SPXS
Bus-Typ Starlink V2M
Phasenstatus In Orbit
Besitzer/Staat SPXS/US

Große Konstellationen

Loading constellations...